TimePDT,TemperatureF,Dew PointF,Humidity,Sea Level PressureIn,VisibilityMPH,Wind Direction,Wind SpeedMPH,Gust SpeedMPH,PrecipitationIn,Events,Conditions,WindDirDegrees,DateUTC
12:55 AM,55.9,46.9,72,30.01,10.0,East,3.5,-,N/A,,Clear,100,2012-10-29 07:55:00
1:55 AM,54.0,46.0,75,30.02,9.0,Calm,Calm,-,N/A,,Clear,0,2012-10-29 08:55:00
2:55 AM,53.1,46.0,77,30.03,10.0,Calm,Calm,-,N/A,,Clear,0,2012-10-29 09:55:00
3:55 AM,52.0,48.0,86,30.02,7.0,Calm,Calm,-,N/A,,Clear,0,2012-10-29 10:55:00
4:55 AM,53.1,48.9,86,30.02,7.0,Calm,Calm,-,N/A,,Clear,0,2012-10-29 11:55:00
5:55 AM,52.0,48.0,86,30.05,8.0,Calm,Calm,-,N/A,,Clear,0,2012-10-29 12:55:00
6:55 AM,51.1,48.0,89,30.06,10.0,Calm,Calm,-,N/A,,Clear,0,2012-10-29 13:55:00
7:55 AM,52.0,48.9,89,30.07,10.0,Calm,Calm,-,N/A,,Clear,0,2012-10-29 14:55:00
8:55 AM,57.0,50.0,77,30.10,10.0,Calm,Calm,-,N/A,,Clear,0,2012-10-29 15:55:00
9:55 AM,64.0,55.0,73,30.11,10.0,WNW,3.5,-,N/A,,Clear,290,2012-10-29 16:55:00
10:55 AM,68.0,55.0,63,30.10,10.0,Calm,Calm,-,N/A,,Clear,0,2012-10-29 17:55:00
11:55 AM,72.0,54.0,53,30.08,10.0,Calm,Calm,-,N/A,,Clear,0,2012-10-29 18:55:00
12:55 PM,75.0,54.0,48,30.06,10.0,Calm,Calm,-,N/A,,Clear,0,2012-10-29 19:55:00
1:55 PM,77.0,54.0,45,30.04,10.0,WNW,4.6,-,N/A,,Clear,290,2012-10-29 20:55:00
2:55 PM,78.1,54.0,43,30.03,10.0,West,5.8,-,N/A,,Clear,280,2012-10-29 21:55:00
3:55 PM,80.1,55.0,42,30.02,10.0,North,4.6,-,N/A,,Clear,350,2012-10-29 22:55:00
4:55 PM,80.1,55.9,43,30.01,10.0,North,8.1,-,N/A,,Clear,350,2012-10-29 23:55:00
5:55 PM,75.9,55.9,50,30.01,10.0,North,5.8,-,N/A,,Clear,350,2012-10-30 00:55:00
6:55 PM,69.1,53.1,57,30.02,10.0,WSW,3.5,-,N/A,,Clear,240,2012-10-30 01:55:00
7:55 PM,64.9,54.0,68,30.02,10.0,West,3.5,-,N/A,,Clear,280,2012-10-30 02:55:00
8:55 PM,64.9,53.1,65,30.03,10.0,WNW,3.5,-,N/A,,Clear,300,2012-10-30 03:55:00
9:55 PM,61.0,52.0,72,30.04,10.0,Calm,Calm,-,N/A,,Clear,0,2012-10-30 04:55:00
10:55 PM,59.0,52.0,78,30.04,10.0,Calm,Calm,-,N/A,,Clear,0,2012-10-30 05:55:00
11:55 PM,59.0,52.0,78,30.04,10.0,Calm,Calm,-,N/A,,Clear,0,2012-10-30 06:55:00